Regional Weather Roundup
Issued by NWS

Home | Current Version | Previous Version | Text Only | Print | Product List | Glossary Off
Versions: 1 2 3 4 5 6 7 8 9 10 11 12 13 14 15 16 17 18 19 20 21 22 23 24 25 26 27 28 29 30 31 32 33 34 35 36 37 38 39 40 41 42 43 44 45 46 47 48 49 50

000
ASUS43 KFSD 062010
RWRSD

WEATHER ROUNDUP FOR SOUTH DAKOTA
NATIONAL WEATHER SERVICE SIOUX FALLS SD
300 PM CDT FRI MAY 06 2016

NOTE: "FAIR" INDICATES FEW OR NO CLOUDS BELOW 12,000 FEET WITH NO
SIGNIFICANT WEATHER AND/OR OBSTRUCTIONS TO VISIBILITY.


SDZ001>005-009-010-012>017-062100-
NORTHWEST AND NORTH CENTRAL SOUTH DAKOTA

CITY           SKY/WX    TMP DP  RH WIND       PRES   REMARKS
BUFFALO          N/A     76  45  33 N26       29.97S
FAITH            N/A     78  47  33 N28G33    29.94R
MOBRIDGE         N/A     83  51  33 N24G31    29.87R
$$

SDZ012>016-024>037-041>051-057-063-072>074-062100-
SOUTHWEST AND SOUTH CENTRAL SOUTH DAKOTA

CITY           SKY/WX    TMP DP  RH WIND       PRES   REMARKS
RAPID CTY ARPT CLOUDY    78  51  38 N25G37    29.97R
PIERRE         CLOUDY    84  50  30 N9        29.83S
CUSTER         CLOUDY    70  39  32 NE17G25   30.05R
ELLSWORTH AFB  CLOUDY    75  49  39 N24       29.98R
PHILIP         CLOUDY    81  56  42 NE9       29.87S
PINE RIDGE     MOSUNNY   83  53  35 MISG      29.92S
WINNER         FAIR      87  51  28 SW15      29.85S
$$

SDZ004>011-016>023-039-040-062100-
NORTHEAST SOUTH DAKOTA

CITY           SKY/WX    TMP DP  RH WIND       PRES   REMARKS
ABERDEEN       LGT RAIN  87  48  25 N24G32    29.80R
WATERTOWN      SUNNY     90  43  19 NW12      29.79F
BROOKINGS      MOSUNNY   87  48  25 W14       29.81S
SISSETON         N/A     93  48  21 N21G32    29.74S
$$

SDZ017-020-022-023-036>040-048>070-062100-
SOUTHEAST SOUTH DAKOTA

CITY           SKY/WX    TMP DP  RH WIND       PRES   REMARKS
SIOUX FALLS    MOSUNNY   85  50  29 W14G25    29.82F
HURON          MOSUNNY   89  49  25 W7        29.80F
CHAMBERLAIN    MOSUNNY   87  56  34 SW13      29.83S
MITCHELL       SUNNY     88  53  30 W14G25    29.81F
YANKTON        SUNNY     88  50  27 SW14G21   29.83F
$$

ABBREVIATIONS USED IN REMARKS
   TC - TEMPERATURE IN CELSIUS
  WCI - WIND CHILL INDEX
   HX - HEAT INDEX
  VSB - VISIBILITY




USA.gov is the U.S. government's official web portal to all federal, state and local government web resources and services.